| time (UTC) | temp F | wind direction | speed knots | gust knots | rain 1hr in | rain 24hr in | rain mn in | humidity % | barometer mb |
| 20260502231456 | 61 | 173 | 2.6 | 3.5 | 0.00 | 0.00 | 0.00 | 42 | 1012.3 |
| 20260502225955 | 62 | 192 | 2.6 | 4.3 | 0.00 | 0.00 | 0.00 | 42 | 1012.4 |
| 20260502224454 | 61 | 191 | 2.6 | 5.2 | 0.00 | 0.00 | 0.00 | 44 | 1012.5 |
| 20260502222953 | 62 | 174 | 2.6 | 3.5 | 0.00 | 0.00 | 0.00 | 44 | 1012.5 |
| 20260502221451 | 62 | 204 | 2.6 | 3.5 | 0.00 | 0.00 | 0.00 | 45 | 1012.6 |
| 20260502215950 | 62 | 173 | 2.6 | 3.5 | 0.00 | 0.00 | 0.00 | 44 | 1012.6 |
| 20260502214449 | 62 | 240 | 2.6 | 4.3 | 0.00 | 0.00 | 0.00 | 43 | 1012.7 |
| 20260502212948 | 62 | 185 | 1.7 | 2.6 | 0.00 | 0.00 | 0.00 | 44 | 1012.9 |
| 20260502211448 | 62 | 204 | 1.7 | 2.6 | 0.00 | 0.00 | 0.00 | 44 | 1012.9 |
| 20260502205946 | 63 | 228 | 1.7 | 3.5 | 0.00 | 0.00 | 0.00 | 43 | 1012.9 |
| 20260502204446 | 63 | 195 | 1.7 | 2.6 | 0.00 | 0.00 | 0.00 | 43 | 1013.0 |
| 20260502202945 | 62 | 179 | 1.7 | 1.7 | 0.00 | 0.00 | 0.00 | 44 | 1013.0 |
| 20260502201444 | 63 | 162 | 1.7 | 1.7 | 0.00 | 0.00 | 0.00 | 43 | 1013.0 |
| 20260502195943 | 63 | 168 | 1.7 | 1.7 | 0.00 | 0.00 | 0.00 | 43 | 1013.1 |
| 20260502194442 | 64 | 192 | 1.7 | 1.7 | 0.00 | 0.00 | 0.00 | 46 | 1013.2 |
| 20260502192941 | 65 | 174 | 1.7 | 1.7 | 0.00 | 0.00 | 0.00 | 45 | 1013.2 |
| 20260502191440 | 66 | 180 | 0.9 | 1.7 | 0.00 | 0.00 | 0.00 | 42 | 1013.2 |
| 20260502185939 | 67 | 162 | 1.7 | 1.7 | 0.00 | 0.00 | 0.00 | 41 | 1013.1 |
| 20260502184438 | 67 | 168 | 1.7 | 1.7 | 0.00 | 0.00 | 0.00 | 40 | 1013.2 |
| 20260502182937 | 69 | 180 | 1.7 | 2.6 | 0.00 | 0.00 | 0.00 | 37 | 1013.1 |
| 20260502181436 | 71 | 198 | 1.7 | 2.6 | 0.00 | 0.00 | 0.00 | 35 | 1013.1 |
| 20260502162930 | 77 | 114 | 3.5 | 7.8 | 0.00 | 0.00 | 0.00 | 29 | 1013.6 |
| 20260502161429 | 77 | 175 | 3.5 | 8.7 | 0.00 | 0.00 | 0.00 | 28 | 1013.8 |
| 20260502151425 | 78 | 167 | 3.5 | 8.7 | 0.00 | 0.00 | 0.00 | 28 | 1014.6 |
| 20260502122916 | 76 | 250 | 4.3 | 8.7 | 0.00 | 0.00 | 0.00 | 26 | 1016.6 |
| 20260502121414 | 77 | 217 | 3.5 | 8.7 | 0.00 | 0.00 | 0.00 | 24 | 1016.7 |
| 20260502115913 | 76 | 180 | 4.3 | 9.6 | 0.00 | 0.00 | 0.00 | 25 | 1016.8 |
| 20260502114412 | 77 | 210 | 4.3 | 8.7 | 0.00 | 0.00 | 0.00 | 25 | 1017.1 |
| 20260502112911 | 76 | 222 | 2.6 | 5.2 | 0.00 | 0.00 | 0.00 | 25 | 1017.4 |
| 20260502111410 | 76 | 12 | 3.5 | 8.7 | 0.00 | 0.00 | 0.00 | 25 | 1017.5 |
| 20260502105910 | 74 | 228 | 5.2 | 9.6 | 0.00 | 0.00 | 0.00 | 27 | 1017.7 |
| 20260502104409 | 74 | 246 | 3.5 | 9.6 | 0.00 | 0.00 | 0.00 | 28 | 1017.9 |
| 20260502102908 | 74 | 240 | 4.3 | 11.3 | 0.00 | 0.00 | 0.00 | 26 | 1018.1 |
| 20260502101407 | 74 | 211 | 3.5 | 7.8 | 0.00 | 0.00 | 0.00 | 25 | 1018.1 |
| 20260502091403 | 72 | 288 | 3.5 | 7.0 | 0.00 | 0.00 | 0.00 | 30 | 1018.8 |
| 20260502071356 | 66 | 42 | 0.9 | 1.7 | 0.00 | 0.00 | 0.00 | 37 | 1019.7 |
| 20260502065854 | 64 | 278 | 1.7 | 2.6 | 0.00 | 0.00 | 0.00 | 43 | 1019.7 |
| 20260502064353 | 61 | 342 | 2.6 | 3.5 | 0.00 | 0.00 | 0.00 | 49 | 1019.8 |
| 20260502062853 | 59 | 329 | 1.7 | 3.5 | 0.00 | 0.00 | 0.00 | 55 | 1019.9 |
| 20260502061352 | 57 | 340 | 1.7 | 2.6 | 0.00 | 0.00 | 0.00 | 59 | 1019.9 |
| 20260502055851 | 58 | 348 | 0.0 | 1.7 | 0.00 | 0.00 | 0.00 | 57 | 1019.9 |
| 20260502054350 | 55 | 295 | 0.0 | 1.7 | 0.00 | 0.00 | 0.00 | 60 | 1019.9 |
| 20260502052849 | 53 | 336 | 0.0 | 1.7 | 0.00 | 0.00 | 0.00 | 61 | 1019.9 |
| 20260502051348 | 51 | 258 | 0.0 | 0.0 | 0.00 | 0.00 | 0.00 | 63 | 1019.9 |
| 20260502045847 | 47 | 258 | 0.0 | 0.0 | 0.00 | 0.00 | 0.00 | 70 | 1020.1 |
| 20260502044346 | 46 | 268 | 0.0 | 0.9 | 0.00 | 0.00 | 0.00 | 73 | 1020.2 |
| 20260502042845 | 45 | 264 | 0.0 | 0.0 | 0.00 | 0.00 | 0.00 | 74 | 1020.1 |
| 20260502041344 | 43 | 254 | 0.9 | 1.7 | 0.00 | 0.00 | 0.00 | 76 | 1020.0 |
| 20260502035843 | 43 | 252 | 0.0 | 1.7 | 0.00 | 0.00 | 0.00 | 76 | 1020.0 |
| 20260502034342 | 42 | 216 | 0.0 | 1.7 | 0.00 | 0.00 | 0.00 | 79 | 1020.1 |
| 20260502032841 | 42 | 252 | 0.0 | 1.7 | 0.00 | 0.00 | 0.00 | 79 | 1020.2 |
| 20260502031340 | 42 | 240 | 0.0 | 1.7 | 0.00 | 0.00 | 0.00 | 79 | 1020.2 |
| 20260502025840 | 42 | 210 | 0.9 | 1.7 | 0.00 | 0.00 | 0.00 | 78 | 1020.3 |
| 20260502024339 | 43 | 234 | 0.9 | 1.7 | 0.00 | 0.00 | 0.00 | 76 | 1020.3 |
| 20260502022838 | 43 | 228 | 1.7 | 2.6 | 0.00 | 0.00 | 0.00 | 75 | 1020.3 |
| 20260502021337 | 43 | 240 | 1.7 | 2.6 | 0.00 | 0.00 | 0.00 | 76 | 1020.4 |
| 20260502015836 | 44 | 228 | 0.9 | 1.7 | 0.00 | 0.00 | 0.00 | 76 | 1020.4 |
| 20260502014336 | 44 | 228 | 1.7 | 2.6 | 0.00 | 0.00 | 0.00 | 74 | 1020.4 |
| 20260502012834 | 45 | 228 | 1.7 | 2.6 | 0.00 | 0.00 | 0.00 | 73 | 1020.4 |
| 20260502011334 | 45 | 234 | 0.9 | 1.7 | 0.00 | 0.00 | 0.00 | 73 | 1020.6 |
| 20260502005834 | 46 | 240 | 1.7 | 2.6 | 0.00 | 0.00 | 0.00 | 72 | 1020.7 |
| 20260502004332 | 46 | 258 | 1.7 | 1.7 | 0.00 | 0.00 | 0.00 | 71 | 1020.7 |
| 20260502002831 | 46 | 240 | 1.7 | 2.6 | 0.00 | 0.00 | 0.00 | 73 | 1020.7 |
| 20260502001330 | 46 | 246 | 1.7 | 2.6 | 0.00 | 0.00 | 0.00 | 73 | 1020.9 |
| 20260501235829 | 47 | 252 | 0.9 | 1.7 | 0.00 | 0.00 | 0.00 | 71 | 1020.9 |
| 20260501234329 | 48 | 234 | 1.7 | 2.6 | 0.00 | 0.00 | 0.00 | 73 | 1021.0 |
| 20260501232828 | 48 | 240 | 0.9 | 1.7 | 0.00 | 0.00 | 0.00 | 70 | 1021.0 |